#timestamp,LO_Frequency,Hit,StdDev 
1581062415.3,286046999.7,N
1581062435.1,286047002.5,N
1581062455.9,286047000.1,N
1581062475.7,286047000.2,N
1581062495.5,286047002.8,N
1581062515.4,286047000.6,N
1581062535.2,286047001.0,N
1581062555.0,286047002.8,N
1581062556.0,286047002.8,N
1581062575.8,286047002.2,N
1581062595.6,286047002.1,N
1581062615.5,286046999.7,N
1581062635.3,286047002.7,N
1581062655.1,286047000.2,N
1581062675.9,286046999.5,N
1581062695.7,286046999.5,N
1581062715.6,286047001.6,N
1581062735.4,286047001.3,N
1581062755.2,286047001.8,N
1581062775.1,286047002.1,N
1581062776.0,286047002.1,N
1581062795.8,286047001.8,N
1581062815.6,286047005.9,Y
1581062835.5,286046999.8,P
1581062855.3,286047000.4,N
1581062875.2,286047002.8,P
1581062895.9,286047001.6,N
1581062915.7,286047001.0,N
1581062935.6,286046999.9,N
1581062955.4,286047000.2,N
1581062975.2,286047000.0,N
1581062995.1,286046998.4,N
1581062996.0,286046998.4,N
1581063015.8,286046998.3,N
1581063035.7,286047000.9,N
1581063055.5,286047001.1,N
1581063075.3,286047002.8,N
1581063095.2,286047002.7,N
1581063115.0,286047002.6,N
1581063115.9,286047002.6,N
1581063135.8,286047002.8,N
1581063155.6,286046999.8,N
1581063175.4,286047000.2,N
1581063195.3,286047000.4,N
1581063215.1,286047002.3,N
1581063235.8,286047001.4,N
1581063255.7,286047003.9,N
1581063275.5,286047005.9,Y
1581063295.4,286047001.8,P
1581063315.2,286047002.4,P
1581063335.0,286047002.2,P
1581063335.9,286047002.2,Y
1581063355.8,286046999.4,P
1581063375.6,286046995.0,P
1581063395.5,286046997.2,N
1581063415.3,286046996.3,N
1581063435.1,286046997.4,N
1581063455.9,286046997.0,N
1581063475.7,286046998.0,N
1581063495.5,286046997.6,N
1581063515.4,286046999.5,N
1581063535.2,286046996.8,N
1581063555.1,286046999.2,N
1581063556.0,286046999.2,N
1581063575.8,286046997.0,N
1581063595.6,286046997.1,N
1581063615.5,286046996.7,N
1581063635.3,286046995.6,N
1581063655.1,286046996.2,N
1581063675.9,286046999.4,N
1581063695.7,286047001.2,N
1581063715.6,286046998.5,N
1581063735.4,286047000.9,N
1581063755.2,286046998.4,N
1581063775.1,286046998.4,N
1581063776.0,286046998.4,N
1581063795.8,286046999.4,N
1581063815.7,286046997.0,N
1581063835.5,286046999.5,N
1581063855.3,286046999.5,N
1581063875.2,286046997.4,N
1581063895.0,286046995.1,Y
1581063895.9,286046995.1,P
1581063915.7,286046998.6,N
1581063935.6,286046999.6,N
1581063955.4,286046998.4,N
1581063975.3,286046999.0,N
1581063995.1,286046998.8,N
1581064015.8,286046999.8,N
1581064035.7,286047001.1,N
1581064055.5,286046998.9,N
1581064075.4,286047000.6,N
1581064095.2,286047000.9,N
1581064115.0,286047000.6,N
1581064115.9,286047000.6,N
1581064135.8,286047000.2,N
1581064155.6,286047000.9,N
1581064175.4,286046998.5,N
1581064195.3,286047002.6,N
1581064215.1,286047000.4,N
1581064235.9,286047000.0,N
1581064255.7,286047000.6,N
1581064275.5,286047000.8,N
1581064295.4,286047000.5,N
1581064315.2,286046998.1,N
1581064335.0,286047000.4,N
1581064335.9,286047000.4,N
1581064355.8,286046999.8,N
1581064375.6,286047002.7,N
1581064395.5,286047000.4,N
1581064415.3,286047002.8,N
1581064435.1,286047001.5,N
1581064455.9,286046999.7,N
1581064475.7,286046999.9,N
1581064495.5,286047000.8,N
1581064515.4,286046999.0,N
1581064535.2,286047000.8,N
1581064555.1,286046999.2,N
1581064556.0,286046999.2,N
1581064575.8,286046997.1,N
1581064595.6,286046997.2,N
1581064615.5,286046999.1,N
1581064635.3,286046999.6,N
1581064655.1,286046996.6,N
1581064675.9,286046995.0,Y
1581064695.7,286046999.6,P
1581064715.6,286046997.8,P
1581064735.4,286046995.2,P
1581064755.2,286046996.2,N
1581064775.1,286046995.9,N
1581064776.0,286046995.9,N
1581064795.8,286046995.5,N
1581064815.7,286046999.4,N
1581064835.5,286047000.7,N
1581064855.3,286046999.2,N
1581064875.2,286046997.7,N
1581064895.0,286046995.6,N
1581064895.9,286046995.6,N
1581064915.7,286046995.7,N
1581064935.6,286046995.2,N
1581064955.4,286046994.9,N
1581064975.3,286046995.8,N
1581064995.1,286046997.7,N
1581064996.0,286046997.7,N
1581065015.8,286046997.4,N
1581065035.7,286046997.6,N
1581065055.5,286046995.3,N
1581065075.4,286046995.7,N
1581065095.2,286046995.6,N
1581065115.0,286046995.9,N
1581065115.9,286046995.9,N
1581065135.8,286046994.5,Y
1581065155.6,286046997.1,P
1581065175.5,286046996.7,P
1581065195.3,286046999.2,P
1581065215.1,286046997.6,N
1581065235.9,286046995.3,Y
1581065255.7,286046997.1,P
1581065275.5,286046996.8,P
1581065295.4,286046995.3,P
1581065315.2,286046995.6,Y
1581065335.1,286046999.0,P
1581065336.0,286046999.0,N
1581065355.8,286046998.7,N
1581065375.6,286046996.9,Y
1581065395.5,286046998.1,P
1581065415.3,286046998.1,P
1581065435.2,286046998.7,P
1581065455.9,286047001.1,Y
1581065475.7,286047000.1,P
1581065495.6,286047000.4,N
1581065515.4,286046999.3,N
1581065535.3,286046996.7,Y
1581065555.1,286046997.6,P
1581065556.0,286046997.6,N
1581065575.8,286046999.5,N
1581065595.7,286046995.8,Y
1581065615.5,286046995.3,P
1581065635.4,286046995.2,N
1581065655.2,286046995.1,P
1581065675.0,286046997.8,N
1581065675.9,286046997.8,N
1581065695.8,286046997.3,N
1581065715.6,286046996.5,N
1581065735.4,286046996.9,N
1581065755.3,286046996.5,N
1581065775.1,286046997.4,N
1581065795.9,286046999.2,N
1581065815.7,286046996.9,N
1581065835.5,286046996.6,N
1581065855.4,286046997.5,N
1581065875.2,286046996.1,Y
1581065895.1,286046997.1,P
1581065896.0,286046997.1,P
1581065915.8,286046997.9,P
1581065935.6,286046997.4,Y
1581065955.5,286046998.5,P
1581065975.3,286047000.4,N
1581065995.1,286047000.9,N
